TimePST,TemperatureF,Dew PointF,Humidity,Sea Level PressureIn,VisibilityMPH,Wind Direction,Wind SpeedMPH,Gust SpeedMPH,PrecipitationIn,Events,Conditions,WindDirDegrees,DateUTC
12:15 AM,53.6,46.4,77,29.71,10.0,North,-9999.0,-,N/A,,Overcast,0,2013-11-19 08:15:00
12:35 AM,53.6,46.4,77,29.71,10.0,North,-9999.0,-,N/A,,Overcast,0,2013-11-19 08:35:00
12:55 AM,53.6,46.4,77,29.71,10.0,North,-9999.0,-,N/A,,Overcast,0,2013-11-19 08:55:00
1:15 AM,51.8,48.2,88,29.71,10.0,North,-9999.0,-,0.04,,Overcast,0,2013-11-19 09:15:00
1:35 AM,51.8,48.2,88,29.70,10.0,North,-9999.0,-,0.07,,Overcast,0,2013-11-19 09:35:00
1:55 AM,51.8,48.2,88,29.70,10.0,North,-9999.0,-,0.09,,Overcast,0,2013-11-19 09:55:00
2:15 AM,51.8,48.2,88,29.71,10.0,North,-9999.0,-,N/A,,Overcast,0,2013-11-19 10:15:00
2:35 AM,51.8,48.2,88,29.70,10.0,North,-9999.0,-,0.01,,Overcast,0,2013-11-19 10:35:00
2:55 AM,51.8,48.2,88,29.71,10.0,North,-9999.0,-,0.01,,Overcast,0,2013-11-19 10:55:00
3:15 AM,51.8,48.2,88,29.72,8.0,SSE,11.5,16.1,0.03,,Mostly Cloudy,150,2013-11-19 11:15:00
3:35 AM,51.8,48.2,88,29.73,4.0,North,-9999.0,-,0.03,,Overcast,0,2013-11-19 11:35:00
3:55 AM,51.8,48.2,88,29.74,4.0,Calm,Calm,-,0.05,,Overcast,0,2013-11-19 11:55:00
4:15 AM,51.8,48.2,88,29.74,10.0,South,5.8,-,0.01,,Overcast,180,2013-11-19 12:15:00
4:35 AM,51.8,48.2,88,29.74,7.0,North,-9999.0,-,0.02,,Overcast,0,2013-11-19 12:35:00
4:55 AM,51.8,46.4,82,29.75,10.0,North,-9999.0,-,0.02,,Overcast,0,2013-11-19 12:55:00
5:15 AM,51.8,46.4,82,29.76,8.0,North,-9999.0,-,0.02,,Overcast,0,2013-11-19 13:15:00
5:35 AM,50.0,46.4,87,29.76,5.0,North,-9999.0,-,0.05,,Overcast,0,2013-11-19 13:35:00
5:55 AM,48.2,44.6,87,29.77,8.0,North,-9999.0,-,0.06,,Overcast,0,2013-11-19 13:55:00
6:15 AM,48.2,44.6,87,29.78,10.0,North,-9999.0,-,0.01,,Overcast,0,2013-11-19 14:15:00
6:35 AM,48.2,44.6,87,29.79,9.0,North,-9999.0,-,0.01,,Overcast,0,2013-11-19 14:35:00
6:55 AM,48.2,42.8,82,29.79,10.0,North,-9999.0,-,0.01,,Overcast,0,2013-11-19 14:55:00
7:15 AM,48.2,42.8,82,29.80,10.0,North,-9999.0,-,0.01,,Overcast,0,2013-11-19 15:15:00
7:35 AM,48.2,42.8,82,29.80,10.0,North,-9999.0,-,0.01,,Overcast,0,2013-11-19 15:35:00
7:55 AM,48.2,42.8,82,29.81,10.0,North,-9999.0,-,0.01,,Overcast,0,2013-11-19 15:55:00
8:15 AM,48.2,42.8,82,29.81,10.0,North,-9999.0,-,N/A,,Overcast,0,2013-11-19 16:15:00
8:35 AM,48.2,44.6,87,29.82,5.0,North,-9999.0,-,0.01,,Overcast,0,2013-11-19 16:35:00
8:55 AM,48.2,42.8,82,29.82,9.0,North,-9999.0,-,0.01,,Overcast,0,2013-11-19 16:55:00
9:15 AM,48.2,42.8,82,29.83,10.0,North,-9999.0,-,N/A,,Overcast,0,2013-11-19 17:15:00
9:35 AM,48.2,42.8,82,29.84,7.0,North,-9999.0,-,N/A,,Overcast,0,2013-11-19 17:35:00
9:55 AM,48.2,42.8,82,29.85,7.0,North,-9999.0,-,N/A,,Overcast,0,2013-11-19 17:55:00
10:15 AM,46.4,42.8,87,29.86,7.0,North,-9999.0,-,N/A,,Overcast,0,2013-11-19 18:15:00
10:35 AM,46.4,42.8,87,29.87,3.0,NW,4.6,-,N/A,,Overcast,310,2013-11-19 18:35:00
10:55 AM,46.4,41.0,81,29.88,7.0,North,-9999.0,-,0.01,,Overcast,0,2013-11-19 18:55:00
11:15 AM,46.4,42.8,87,29.88,10.0,North,4.6,-,N/A,,Overcast,10,2013-11-19 19:15:00
11:35 AM,46.4,42.8,87,29.89,10.0,North,-9999.0,-,N/A,,Overcast,0,2013-11-19 19:35:00
11:55 AM,46.4,41.0,81,29.89,10.0,North,-9999.0,-,N/A,,Overcast,0,2013-11-19 19:55:00
12:15 PM,46.4,41.0,81,29.89,10.0,North,-9999.0,-,N/A,,Overcast,0,2013-11-19 20:15:00
12:35 PM,48.2,41.0,76,29.89,10.0,North,-9999.0,-,N/A,,Overcast,0,2013-11-19 20:35:00
12:55 PM,48.2,39.2,71,29.89,10.0,North,-9999.0,-,N/A,,Overcast,0,2013-11-19 20:55:00
1:15 PM,46.4,39.2,76,29.89,10.0,North,-9999.0,-,N/A,,Overcast,0,2013-11-19 21:15:00
1:35 PM,46.4,37.4,71,29.90,10.0,North,-9999.0,-,N/A,,Overcast,0,2013-11-19 21:35:00
1:55 PM,46.4,37.4,71,29.90,10.0,North,-9999.0,-,N/A,,Mostly Cloudy,0,2013-11-19 21:55:00
2:15 PM,46.4,39.2,76,29.90,10.0,North,-9999.0,-,N/A,,Mostly Cloudy,0,2013-11-19 22:15:00
2:35 PM,46.4,39.2,76,29.90,10.0,North,-9999.0,-,N/A,,Overcast,0,2013-11-19 22:35:00
2:55 PM,46.4,37.4,71,29.90,10.0,North,-9999.0,-,N/A,,Overcast,0,2013-11-19 22:55:00
3:15 PM,46.4,39.2,76,29.90,10.0,North,-9999.0,-,N/A,,Overcast,0,2013-11-19 23:15:00
3:35 PM,46.4,39.2,76,29.91,10.0,North,-9999.0,-,N/A,,Overcast,0,2013-11-19 23:35:00
3:55 PM,46.4,39.2,76,29.92,10.0,North,-9999.0,-,N/A,,Overcast,0,2013-11-19 23:55:00
4:15 PM,46.4,39.2,76,29.92,10.0,North,-9999.0,-,N/A,,Overcast,0,2013-11-20 00:15:00
4:35 PM,46.4,37.4,71,29.92,10.0,North,-9999.0,-,N/A,,Overcast,0,2013-11-20 00:35:00
4:55 PM,46.4,37.4,71,29.92,10.0,North,-9999.0,-,N/A,,Mostly Cloudy,0,2013-11-20 00:55:00
5:15 PM,44.6,37.4,76,29.93,10.0,North,-9999.0,-,N/A,,Partly Cloudy,0,2013-11-20 01:15:00
5:35 PM,42.8,37.4,81,29.93,10.0,North,-9999.0,-,N/A,,Clear,0,2013-11-20 01:35:00
5:55 PM,42.8,35.6,76,29.94,10.0,North,-9999.0,-,N/A,,Clear,0,2013-11-20 01:55:00
6:15 PM,42.8,35.6,76,29.95,10.0,Calm,Calm,-,N/A,,Clear,0,2013-11-20 02:15:00
6:35 PM,42.8,33.8,70,29.96,10.0,North,-9999.0,-,N/A,,Clear,0,2013-11-20 02:35:00
6:55 PM,42.8,35.6,76,29.96,10.0,North,-9999.0,-,N/A,,Scattered Clouds,0,2013-11-20 02:55:00
7:15 PM,42.8,32.0,66,29.96,10.0,North,-9999.0,-,N/A,,Scattered Clouds,0,2013-11-20 03:15:00
7:35 PM,42.8,30.2,61,29.97,10.0,North,-9999.0,-,N/A,,Clear,0,2013-11-20 03:35:00
7:55 PM,41.0,30.2,65,29.98,10.0,North,-9999.0,-,N/A,,Clear,0,2013-11-20 03:55:00
8:15 PM,39.2,32.0,75,29.99,10.0,North,-9999.0,-,N/A,,Clear,0,2013-11-20 04:15:00
8:35 PM,39.2,32.0,75,29.99,10.0,North,-9999.0,-,N/A,,Clear,0,2013-11-20 04:35:00
8:55 PM,39.2,30.2,70,30.00,10.0,North,-9999.0,-,N/A,,Clear,0,2013-11-20 04:55:00
9:15 PM,37.4,30.2,75,30.01,10.0,North,-9999.0,-,N/A,,Clear,0,2013-11-20 05:15:00
9:35 PM,35.6,30.2,81,30.02,10.0,North,-9999.0,-,N/A,,Clear,0,2013-11-20 05:35:00
9:55 PM,37.4,28.4,70,30.03,10.0,North,-9999.0,-,N/A,,Clear,0,2013-11-20 05:55:00
10:15 PM,35.6,28.4,75,30.03,10.0,North,-9999.0,-,N/A,,Clear,0,2013-11-20 06:15:00
10:35 PM,33.8,28.4,81,30.04,10.0,North,-9999.0,-,N/A,,Clear,0,2013-11-20 06:35:00
10:55 PM,33.8,28.4,81,30.04,10.0,North,-9999.0,-,N/A,,Clear,0,2013-11-20 06:55:00
11:15 PM,32.0,28.4,87,30.05,10.0,North,-9999.0,-,N/A,,Clear,0,2013-11-20 07:15:00
11:35 PM,33.8,28.4,81,30.06,10.0,North,-9999.0,-,N/A,,Clear,0,2013-11-20 07:35:00
11:55 PM,32.0,28.4,87,30.06,10.0,North,-9999.0,-,N/A,,Clear,0,2013-11-20 07:55:00